Flag for Iran Weather past 2 weeks in Bandar-Abbas, Iran

Now
95 °F

Haze.


Feels Like: 116 °F
Forecast: 82 / 98 °F
Wind: 7 mph from South

Location: Bandarabbass

Current Time: Sep 18, 2014 at 12:38:32 PM

Latest Report: Sep 18, 2014 at 12:00 PM


Visibility: 2 mi

Pressure: 29.74 "Hg

Humidity: 63%

Dew point: 81 °F

Location of Bandar-AbbasLocation

Historic Weather in Bandar-Abbas — Graph

°F

Bandar-Abbas temperature yesterday

Maximum temperature yesterday: 95 °F (at 11:30 AM)
Minimum temperature yesterday: 84 °F (at 3:30 AM)
Average temperature yesterday: 90 °F

Past Weeks' High & Low Weather Summary

 TemperatureHumidityPressure
High106 °F (Sep 4, 1:20 PM)94% (Sep 15, 7:30 AM)29.80 "Hg (Sep 15, 7:30 AM)
Low81 °F (Sep 4, 7:00 AM)31% (Sep 4, 10:30 AM)29.42 "Hg (Sep 5, 3:55 PM)
Average92 °F72%29.58 "Hg
* Reported Sep 3 12:00 Noon — Sep 18 11:30 AM, Bandar-Abbas, Weather by CustomWeather, © 2014

Note: Actual official high and low records may vary slightly from our data, if they occured in-between our weather recording intervals... More about our weather records

Advertising

Bandar-Abbas weather history for previous 24 hours

 ConditionsComfort  
Time TempWeatherWind HumidityBarometerVisibility
11:30 AM
Sep 18
95 °FHaze.12 mph63%29.74 "Hg2 mi
11:00 AM95 °FHaze.7 mph63%29.74 "Hg2 mi
10:30 AM93 °FScattered clouds.5 mph67%29.74 "Hg2 mi
10:00 AM91 °FScattered clouds.5 mph75%29.74 "Hg2 mi
9:30 AM90 °FScattered clouds.5 mph79%29.74 "Hg2 mi
9:00 AM88 °FFog.5 mph84%29.71 "Hg2 mi
8:30 AM86 °FFog.7 mph84%29.71 "Hg2 mi
8:00 AM84 °FFog.7 mph89%29.68 "Hg2 mi
7:00 AM82 °FFog.7 mph89%29.65 "Hg2 mi
6:30 AM82 °FFog.7 mph89%29.65 "Hg2 mi
5:30 AM82 °FFog.5 mph89%29.59 "Hg2 mi
4:30 AM82 °FFog.5 mph89%29.59 "Hg2 mi
3:30 AM84 °FFog.5 mph84%29.62 "Hg3 mi
2:30 AM84 °FFog.7 mph84%29.62 "Hg3 mi
2:00 AM86 °FFog.7 mph79%29.62 "Hg3 mi
1:30 AM86 °FFog.5 mph79%29.62 "Hg3 mi
1:00 AM86 °FFog.7 mph79%29.62 "Hg3 mi
12:30 AM86 °FFog.5 mph79%29.62 "Hg3 mi
12:00 AM86 °FFog.5 mph79%29.62 "Hg3 mi
11:30 PM
Sep 17
88 °FClear.5 mph79%29.62 "Hg3 mi
11:00 PM88 °FClear.No wind75%29.62 "Hg3 mi
10:30 PM90 °FClear.5 mph75%29.62 "Hg3 mi
10:00 PM90 °FClear.5 mph75%29.62 "Hg3 mi
9:30 PM90 °FClear.5 mph75%29.62 "Hg3 mi
9:00 PM90 °FClear.9 mph75%29.62 "Hg3 mi
8:30 PM90 °FClear.7 mph75%29.59 "Hg3 mi
8:00 PM90 °FSunny.9 mph75%29.59 "Hg3 mi
7:30 PM90 °FSunny.12 mph75%29.59 "Hg3 mi
7:00 PM90 °FSunny.12 mph75%29.59 "Hg3 mi
6:30 PM91 °FSunny.12 mph71%29.59 "Hg3 mi
6:00 PM93 °FHaze.9 mph67%29.59 "Hg3 mi
5:30 PM93 °FHaze.9 mph67%29.59 "Hg3 mi
5:00 PM93 °FHaze.12 mph71%29.56 "Hg3 mi
4:30 PM95 °FHaze.12 mph67%29.56 "Hg3 mi
4:00 PM95 °FPassing clouds.7 mph63%29.56 "Hg4 mi
3:30 PM95 °FPassing clouds.12 mph63%29.59 "Hg4 mi
3:00 PM95 °FPassing clouds.12 mph63%29.59 "Hg4 mi
2:30 PM93 °FPassing clouds.12 mph71%29.59 "Hg4 mi
2:00 PM93 °FPassing clouds.12 mph71%29.62 "Hg4 mi
1:30 PM93 °FScattered clouds.12 mph67%29.62 "Hg4 mi
1:00 PM93 °FScattered clouds.14 mph67%29.62 "Hg4 mi
12:30 PM93 °FScattered clouds.16 mph67%29.65 "Hg4 mi
12:00 PM95 °FScattered clouds.9 mph63%29.65 "Hg4 mi
Weather by CustomWeather, © 2014

See weather overviewHow to use our weather pages